This demonstration page uses our WeatherBlox Daily Observations layout. Learn more.

Left ArrowRight Arrow

Hourly Observations for November 3, 2020

Temp ( °F °C ) Dew Point ( °F °C ) Humidity (%) Winds ( mph kmh ) Pressure ( in mb ) Visibility ( mi km ) Precip ( " mm )
12:54 am 00:54 Clear 34 1.1 26 -3.3 73 73 Calm 30.13 1020 8 12.87472 0 0
1:54 am 01:54 Clear 34 1.1 26 -3.3 73 73 Calm 30.11 1020 10 16.0934 0 0
2:54 am 02:54 Clear 35 1.7 26 -3.3 70 70 Calm 30.1 1019 10 16.0934 0 0
3:54 am 03:54 Clear 37 2.8 28 -2.2 70 70 SSE 3 6 30.07 1018 10 16.0934 0 0
4:54 am 04:54 Clear 39 3.9 31 -0.6 73 73 S 3 6 30.06 1018 10 16.0934 0 0
5:54 am 05:54 Clear 39 3.9 32 0 76 76 SSE 5 7 30.05 1018 10 16.0934 0 0
6:54 am 06:54 Clear 38 3.3 32 0 79 79 SSE 3 6 30.04 1017 10 16.0934 0 0
7:54 am 07:54 Sunny 39 3.9 34 1.1 82 82 S 7 11 30.05 1018 10 16.0934 0 0
8:54 am 08:54 Sunny 53 11.7 40 4.4 61 61 S 8 13 30.05 1018 10 16.0934 0 0
9:54 am 09:54 Sunny 62 16.7 38 3.3 41 41 SSW 10 17 30.03 1017 10 16.0934 0 0
10:54 am 10:54 Sunny 68 20 37 2.8 32 32 SSW 13 20 30.01 1016 10 16.0934 0 0
11:54 am 11:54 Sunny 73 22.8 38 3.3 28 28 SSW 13 20 29.99 1016 10 16.0934 0 0
12:54 pm 12:54 Sunny 77 25 39 3.9 26 26 SW 14 22 29.96 1015 10 16.0934 0 0
1:54 pm 13:54 Sunny 82 27.8 39 3.9 22 22 SSW 18 30 29.92 1013 10 16.0934 0 0
2:54 pm 14:54 Sunny 83 28.3 36 2.2 19 19 SW 18 30 29.9 1013 10 16.0934 0 0
3:54 pm 15:54 Sunny 82 27.8 33 0.6 17 17 SW 14 22 29.89 1012 10 16.0934 0 0
4:54 pm 16:54 Sunny 78 25.6 35 1.7 21 21 SSW 14 22 29.9 1013 10 16.0934 0 0
5:54 pm 17:54 Clear 68 20 37 2.8 32 32 S 12 19 29.91 1013 10 16.0934 0 0
6:54 pm 18:54 Clear 59 15 36 2.2 42 42 S 7 11 29.93 1014 10 16.0934 0 0
7:54 pm 19:54 Clear 55 12.8 36 2.2 49 49 SSE 8 13 29.95 1014 10 16.0934 0 0
8:54 pm 20:54 Clear 53 11.7 36 2.2 52 52 S 6 9 29.94 1014 10 16.0934 0 0
9:54 pm 21:54 Clear 54 12.2 38 3.3 55 55 SSW 8 13 29.94 1014 10 16.0934 0 0
10:54 pm 22:54 Clear 58 14.4 39 3.9 50 50 SSW 8 13 29.94 1014 10 16.0934 0 0
11:54 pm 23:54 Clear 56 13.3 39 3.9 53 53 SSW 8 13 29.94 1014 10 16.0934 0 0

Powered by AerisWeather